Ellensburg, WA
on Thursday, December 6, 2012

Thursday
Previous Day Next Day
Daily Summary
 ActualAverage (KYKM)Record (KYKM)
Temperature
Mean Temperature °F 30°F  
Max Temperature 41°F 38°F 55°F (1999)
Min Temperature 28°F 22°F 0°F (1984)
Degree Days
Heating Degree Days 30 35  
Month to date heating degree days 205  
Since 1 July heating degree days 1738  
Cooling Degree Days 0 0  
Month to date cooling degree days 0  
Year to date cooling degree days 472  
Moisture
Dew Point 28°F   
Average Humidity 82    
Maximum Humidity 89    
Minimum Humidity 60    
Precipitation
Precipitation 0.08 in 0.05 in 0.35 in (1987)
Month to date precipitation 0.30  
Year to date precipitation 7.02  
Snow
Snow 0.00 in 0.30 in 2.70 in (2001)
Month to date snowfall 1.7  
Year to date snowfall 13.9  
Since 1 July snowfall 5.3  
Snow Depth in   
Wind
Wind Speed 2 mph   
Max Wind Speed 6 mph   
Max Gust Speed mph   
Visibility 6 miles   
Events Fog , Rain   

Key: T is trace of precipitation, MM is missing value
Source: NWS Daily Summary
Time(PST)TemperatureDew PointHumidity Pressure Visibility Wind DirectionWind SpeedGust SpeedPrecipitationEvents Conditions
12:53 AM 28.9°F 24.1°F 82% 30.17 in 10.0 miles Calm Calm - N/A   Scattered Clouds
1:53 AM 30.9°F 26.1°F 82% 30.16 in 10.0 miles Calm Calm - N/A   Overcast
2:53 AM 30.9°F 26.1°F 82% 30.15 in 10.0 miles East 3.5 mph - N/A   Partly Cloudy
3:53 AM 28.9°F 24.1°F 82% 30.14 in 10.0 miles East 3.5 mph - N/A   Clear
4:53 AM 30.0°F 25.0°F 82% 30.14 in 10.0 miles ENE 3.5 mph - N/A   Clear
5:53 AM 30.0°F 26.1°F 85% 30.13 in 10.0 miles Calm Calm - N/A   Clear
6:53 AM 30.0°F 25.0°F 82% 30.12 in 10.0 miles Calm Calm - N/A   Clear
7:53 AM 30.0°F 25.0°F 82% 30.10 in 10.0 miles NE 5.8 mph - N/A   Partly Cloudy
8:53 AM 30.0°F 26.1°F 85% 30.11 in 10.0 miles Calm Calm - N/A   Clear
9:53 AM 33.1°F 28.0°F 82% 30.11 in 10.0 miles Calm Calm - N/A   Partly Cloudy
10:53 AM 39.0°F 30.0°F 70% 30.10 in 10.0 miles SSW 3.5 mph - N/A   Clear
11:53 AM 41.0°F 28.0°F 60% 30.07 in 10.0 miles Calm Calm - N/A   Partly Cloudy
12:53 PM 41.0°F 28.0°F 60% 30.05 in 10.0 miles Calm Calm - N/A   Overcast
1:53 PM 41.0°F 28.9°F 62% 30.02 in 10.0 miles Calm Calm - 0.00 in   Overcast
2:53 PM 41.0°F 30.0°F 65% 30.02 in 10.0 miles NW 3.5 mph - N/A   Overcast
3:53 PM 37.9°F 33.1°F 83% 30.03 in 10.0 miles NW 4.6 mph - 0.00 in Rain Light Rain
4:53 PM 37.0°F 33.1°F 86% 30.04 in 10.0 miles NW 4.6 mph - 0.01 in Rain Light Rain
5:08 PM 35.6°F 32.0°F 87% 29.99 in 8.0 miles NW 3.5 mph - 0.01 in Rain Light Rain
5:53 PM 36.0°F 32.0°F 86% 30.04 in 8.0 miles Calm Calm - 0.03 in Rain Light Rain
6:53 PM 35.1°F 30.9°F 85% 30.06 in 9.0 miles WSW 4.6 mph - 0.03 in Rain Light Rain
7:00 PM 35.6°F 30.2°F 81% 30.01 in 7.0 miles WNW 3.5 mph - 0.01 in Rain Light Rain
7:53 PM 33.1°F 30.0°F 89% 30.06 in 9.0 miles NNE 5.8 mph - 0.01 in   Partly Cloudy
8:32 PM 32.0°F 28.4°F 87% 30.02 in 2.5 miles South 3.5 mph - N/A   Scattered Clouds
8:36 PM 32.0°F 28.4°F 87% 30.02 in 1.0 miles South 4.6 mph - N/A   Mostly Cloudy
8:39 PM 32.0°F 28.4°F 87% 30.02 in 0.5 miles Calm Calm - N/A Fog Fog
8:53 PM 30.9°F 28.0°F 89% 30.08 in 0.5 miles East 3.5 mph - N/A Fog Light Freezing Fog
9:21 PM 30.2°F 26.6°F 86% 30.03 in 1.2 miles Calm Calm - N/A   Overcast
9:27 PM 30.2°F 24.8°F 80% 30.04 in 3.0 miles Calm Calm - N/A   Haze
9:37 PM 30.2°F 26.6°F 86% 30.04 in 1.5 miles Calm Calm - N/A   Overcast
9:39 PM 30.2°F 26.6°F 86% 30.04 in 0.8 miles Calm Calm - N/A   Mist
9:53 PM 30.9°F 28.0°F 89% 30.09 in 0.2 miles Calm Calm - N/A Fog Light Freezing Fog
10:53 PM 30.0°F 26.1°F 85% 30.09 in 0.2 miles SE 3.5 mph - N/A Fog Light Freezing Fog
11:10 PM 30.2°F 26.6°F 86% 30.05 in 1.2 miles Variable 3.5 mph - N/A   Overcast
11:27 PM 30.2°F 26.6°F 86% 30.04 in 0.8 miles Calm Calm - N/A   Mist
11:53 PM 28.9°F 25.0°F 85% 30.09 in 0.2 miles Calm Calm - N/A Fog Light Freezing Fog
Moon Phase
Dec. 06 Dec. 13 Dec. 20 Dec. 28 Jan. 04
Sunrise:07:33 AM (PST) Moon Rise:No Moon Rise/
Sunset:04:13 PM (PST) Moon Set:12:05 PM (PST)12/6

Copyright © 2014 The Weather Underground, Inc.